Location: Unspecified
(40.7945°N, 0.0000°E)
Time: 06:29:36
(UTC+00:00)

A-11 Canister half - Pass Details

Date: 28 January 2021
Orbit: 1516 x 1684 km, 47.2° (Epoch: 28 February)

Event Time Altitude Azimuth Distance (km) Brightness Sun altitude
Rises 23:36:55 0° 292° (WNW) 4,697 11.8 -65.9°
Enters shadow 23:37:31 - 293° (WNW) 4,505 11.7 -65.9°
Reaches altitude 10° 23:40:01 10° 295° (WNW) 3,700 - -66.1°
Maximum altitude 23:49:19 73° 20° (NNE) 1,574 - -66.6°
Drops below altitude 10° 23:58:35 10° 105° (ESE) 3,685 - -66.9°
Sets 00:01:39 0° 108° (ESE) 4,678 - -67.0°
